contact:dominique.lefevre@mio.osupytheas.fr, maurice.libes@osupytheas.fr
Project:EMSO Ligure-ouest http://www.emso-fr.org/EMSO-France
Sensor Aquadopp, line 13 Serial AQD14315 
DOI : "https://doi.org/10.17882/74513; https://doi.org/10.17882/83244" 
Title:EMSO Ligure Ouest : Data ligne ALBATROSS capteur AQUADOPP - deploiement 2021
Id,Date,Profondeur,Latitude,Longitude,X_East,Y_North,Z_Up,Amplitude_X,Amplitude_Y,Amplitude_Z,Batterie,SoundSpeed,Heading,Pitch,Roll,Pressure,Temperature,Speed,Direction
, , m, degrees North, degrees East, m.s-1, m.s-1,m.s-1, 1, 1, 1, Volt, m.s-1, degree, degree, degree, dbar, degree_C, m.s-1, degree
11,2022-02-11T22:00:00,2200.0,42.79,6.0312,0.067,0.019,-0.002,57.0,59.0,60.0,12.3,1504.2,76.9,-0.1,0.2,2192.825,13.16,0.069,74.2
11,2022-02-11T22:30:00,2200.0,42.79,6.0312,0.078,0.008,-0.012,56.0,60.0,60.0,12.3,1504.2,78.7,-0.6,0.3,2192.827,13.16,0.078,84.1
11,2022-02-11T23:00:00,2200.0,42.79,6.0312,0.081,0.004,0.01,57.0,58.0,62.0,12.3,1504.2,85.5,-0.3,0.2,2192.873,13.16,0.081,87.2
11,2022-02-11T23:30:00,2200.0,42.79,6.0312,0.081,-0.001,0.002,55.0,58.0,59.0,12.3,1504.2,77.4,-1.0,0.3,2192.815,13.16,0.081,90.7
11,2022-02-12T00:00:00,2200.0,42.79,6.0312,0.075,0.006,0.003,58.0,60.0,61.0,12.3,1504.2,83.6,-0.4,0.3,2192.872,13.16,0.075,85.4
11,2022-02-12T00:30:00,2200.0,42.79,6.0312,0.086,-0.003,0.0,56.0,58.0,59.0,12.3,1504.2,81.9,-0.6,0.1,2192.848,13.16,0.086,92.0
11,2022-02-12T01:00:00,2200.0,42.79,6.0312,0.095,-0.009,0.025,61.0,64.0,64.0,12.3,1504.2,76.8,-0.2,0.4,2192.859,13.16,0.095,95.4
11,2022-02-12T01:30:00,2200.0,42.79,6.0312,0.086,-0.03,0.004,60.0,64.0,65.0,12.3,1504.2,85.1,-0.2,0.0,2192.902,13.16,0.091,109.2
11,2022-02-12T02:00:00,2200.0,42.79,6.0312,0.08,-0.007,-0.004,60.0,60.0,63.0,12.3,1504.2,78.4,-0.4,0.2,2192.912,13.16,0.08,95.0
11,2022-02-12T02:30:00,2200.0,42.79,6.0312,0.084,-0.025,0.012,59.0,63.0,63.0,12.3,1504.2,83.4,-0.8,-0.2,2192.923,13.16,0.087,106.6
11,2022-02-12T03:00:00,2200.0,42.79,6.0312,0.094,-0.014,0.002,57.0,62.0,62.0,12.3,1504.2,76.9,-0.9,0.1,2192.941,13.16,0.095,98.5
11,2022-02-12T03:30:00,2200.0,42.79,6.0312,0.083,-0.01,0.009,60.0,62.0,64.0,12.3,1504.2,81.3,-0.9,0.3,2192.949,13.16,0.083,96.9
11,2022-02-12T04:00:00,2200.0,42.79,6.0312,0.07,-0.039,0.006,61.0,62.0,63.0,12.3,1504.2,93.6,-0.5,0.0,2192.946,13.16,0.08,119.1
11,2022-02-12T04:30:00,2200.0,42.79,6.0312,0.072,-0.026,0.006,59.0,62.0,63.0,12.3,1504.2,85.8,-0.9,0.2,2192.977,13.16,0.076,109.9
11,2022-02-12T05:00:00,2200.0,42.79,6.0312,0.053,-0.047,-0.003,59.0,63.0,64.0,12.3,1504.3,101.2,-0.7,0.0,2192.945,13.17,0.07,131.6
11,2022-02-12T05:30:00,2200.0,42.79,6.0312,0.066,-0.033,0.013,60.0,65.0,65.0,12.3,1504.3,84.1,0.3,0.1,2192.979,13.17,0.073,116.6
11,2022-02-12T06:00:00,2200.0,42.79,6.0312,0.053,-0.054,-0.012,61.0,63.0,64.0,12.3,1504.3,105.1,-0.8,0.0,2193.007,13.17,0.075,135.5
11,2022-02-12T06:30:00,2200.0,42.79,6.0312,0.054,-0.033,0.008,62.0,65.0,66.0,12.3,1504.3,98.3,-1.3,0.1,2193.026,13.17,0.063,121.4
11,2022-02-12T07:00:00,2200.0,42.79,6.0312,0.065,-0.045,0.001,63.0,66.0,67.0,12.3,1504.3,101.2,-0.5,0.4,2193.015,13.17,0.079,124.7
11,2022-02-12T07:30:00,2200.0,42.79,6.0312,0.052,-0.045,0.002,64.0,67.0,67.0,12.3,1504.3,97.6,-0.5,0.1,2192.959,13.17,0.068,130.9
11,2022-02-12T08:00:00,2200.0,42.79,6.0312,0.059,-0.031,-0.002,65.0,67.0,69.0,12.3,1504.3,96.6,-0.5,0.1,2192.968,13.17,0.066,117.7
11,2022-02-12T08:30:00,2200.0,42.79,6.0312,0.053,-0.016,0.01,64.0,68.0,68.0,12.3,1504.3,91.3,-0.6,0.0,2192.979,13.17,0.055,106.8
11,2022-02-12T09:00:00,2200.0,42.79,6.0312,0.044,-0.034,0.006,65.0,65.0,69.0,12.3,1504.3,94.9,-0.6,0.0,2192.977,13.17,0.055,127.7
11,2022-02-12T09:30:00,2200.0,42.79,6.0312,0.061,-0.02,0.005,64.0,68.0,70.0,12.3,1504.3,96.6,-0.7,0.2,2192.922,13.17,0.064,108.1
11,2022-02-12T10:00:00,2200.0,42.79,6.0312,0.048,-0.031,-0.006,65.0,68.0,69.0,12.3,1504.3,93.7,-0.9,0.3,2192.956,13.17,0.057,122.9
11,2022-02-12T10:30:00,2200.0,42.79,6.0312,0.044,-0.019,0.008,63.0,66.0,67.0,12.3,1504.3,82.3,-0.2,0.1,2192.935,13.17,0.047,113.4
11,2022-02-12T11:00:00,2200.0,42.79,6.0312,0.063,-0.024,0.012,61.0,63.0,65.0,12.3,1504.2,90.1,-0.5,0.1,2192.911,13.16,0.067,110.9
11,2022-02-12T11:30:00,2200.0,42.79,6.0312,0.047,-0.015,0.0,59.0,62.0,64.0,12.3,1504.2,87.4,-0.3,-0.1,2192.886,13.16,0.049,107.7
11,2022-02-12T12:00:00,2200.0,42.79,6.0312,0.042,-0.023,0.002,58.0,60.0,60.0,12.3,1504.2,92.5,-0.6,0.2,2192.859,13.16,0.047,118.7
11,2022-02-12T12:30:00,2200.0,42.79,6.0312,0.055,-0.013,0.004,59.0,59.0,62.0,12.3,1504.2,82.0,-0.6,0.1,2192.855,13.16,0.056,103.3
11,2022-02-12T13:00:00,2200.0,42.79,6.0312,0.049,-0.004,0.0,57.0,60.0,62.0,12.3,1504.2,84.9,-0.2,0.3,2192.894,13.16,0.049,94.7
11,2022-02-12T13:30:00,2200.0,42.79,6.0312,0.063,-0.015,0.017,58.0,62.0,64.0,12.3,1504.2,89.5,-0.4,0.2,2192.921,13.16,0.064,103.4
11,2022-02-12T14:00:00,2200.0,42.79,6.0312,0.058,-0.011,0.005,58.0,60.0,59.0,12.3,1504.2,86.6,-0.2,0.3,2192.933,13.16,0.059,100.7
11,2022-02-12T14:30:00,2200.0,42.79,6.0312,0.052,-0.027,0.016,56.0,59.0,59.0,12.3,1504.2,88.7,-0.2,0.3,2192.924,13.16,0.058,117.4
11,2022-02-12T15:00:00,2200.0,42.79,6.0312,0.054,-0.029,0.005,56.0,58.0,60.0,12.3,1504.2,94.5,-0.9,-0.1,2192.904,13.16,0.061,118.2
11,2022-02-12T15:30:00,2200.0,42.79,6.0312,0.067,-0.012,0.002,60.0,61.0,62.0,12.3,1504.2,78.5,-0.6,0.3,2192.903,13.16,0.068,100.2
11,2022-02-12T16:00:00,2200.0,42.79,6.0312,0.061,-0.038,0.004,58.0,62.0,62.0,12.3,1504.2,95.1,-0.5,0.2,2192.897,13.16,0.071,121.9
11,2022-02-12T16:30:00,2200.0,42.79,6.0312,0.058,-0.03,0.002,59.0,61.0,63.0,12.3,1504.2,83.1,-0.9,-0.2,2192.907,13.16,0.065,117.4
11,2022-02-12T17:00:00,2200.0,42.79,6.0312,0.058,-0.028,0.008,56.0,58.0,59.0,12.3,1504.2,93.9,-0.7,0.2,2192.922,13.16,0.064,115.8
11,2022-02-12T17:30:00,2200.0,42.79,6.0312,0.056,-0.026,0.013,53.0,58.0,57.0,12.3,1504.2,87.8,-0.5,-0.2,2192.927,13.16,0.061,114.9
11,2022-02-12T18:00:00,2200.0,42.79,6.0312,0.051,-0.044,0.005,54.0,56.0,58.0,12.3,1504.2,100.4,-0.3,0.1,2192.934,13.16,0.067,130.8
11,2022-02-12T18:30:00,2200.0,42.79,6.0312,0.047,-0.023,0.006,54.0,58.0,60.0,12.3,1504.2,82.8,-0.4,-0.1,2192.932,13.16,0.052,116.1
11,2022-02-12T19:00:00,2200.0,42.79,6.0312,0.043,-0.039,-0.005,54.0,59.0,59.0,12.3,1504.2,103.0,-0.3,0.1,2192.878,13.16,0.058,132.2
11,2022-02-12T19:30:00,2200.0,42.79,6.0312,0.044,-0.03,0.007,54.0,56.0,57.0,12.3,1504.2,94.5,-0.4,0.0,2192.888,13.16,0.053,124.3
11,2022-02-12T20:00:00,2200.0,42.79,6.0312,0.049,-0.036,0.004,55.0,57.0,58.0,12.3,1504.2,91.4,-0.6,0.0,2192.881,13.16,0.06,126.3
11,2022-02-12T20:30:00,2200.0,42.79,6.0312,0.045,-0.046,0.0,54.0,57.0,58.0,12.3,1504.2,100.8,-0.5,0.3,2192.85,13.16,0.064,135.6
11,2022-02-12T21:00:00,2200.0,42.79,6.0312,0.039,-0.031,0.01,53.0,56.0,58.0,12.3,1504.2,94.7,-0.7,-0.1,2192.847,13.16,0.049,128.5
